National Weather Service Raw Text Product

Displaying AFOS PIL: RWRTX Received: 2018-11-15 03:00 UTC


785 
ASUS44 KFWD 150301
RWRTX 
NORTH TEXAS HOURLY WEATHER ROUNDUP
NATIONAL WEATHER SERVICE FORT WORTH TX
900 PM CST WED NOV 14 2018

NOTE: "FAIR" INDICATES FEW OR NO CLOUDS BELOW 12,000 FEET WITH NO
SIGNIFICANT WEATHER AND/OR OBSTRUCTIONS TO VISIBILITY.

TXZ118-119-150400-
DALLAS/FORT WORTH METROPLEX
  
CITY           SKY/WX    TMP DP  RH WIND       PRES   REMARKS
DFW AIRPORT    FAIR      42  22  44 CALM      30.33F                  
DALLAS LOVE    FAIR      37  28  70 E3        30.35F                  
FTW MEACHAM    FAIR      41  22  46 E3        30.34F                  
DAL-EXECUTIVE  FAIR      35  26  69 S3        30.34F                  
FTW-ALLIANCE   FAIR      39  24  55 CALM      30.34F                  
ARLINGTON      FAIR      32  29  88 CALM      30.35F                  
GRAND PRAIRIE  FAIR      39  26  58 CALM      30.37S                  
ADDISON        CLEAR     37  25  60 CALM      30.35S                  
MESQUITE       FAIR      35  27  73 CALM      30.36F                  
LANCASTER      FAIR      32  28  85 CALM      30.37S                  
$$

TXZ091>094-102>105-117-120-121-131>134-150400-
NORTH CENTRAL TEXAS
  
CITY           SKY/WX    TMP DP  RH WIND       PRES   REMARKS
SHRMAN/DENISON FAIR      35  17  48 CALM      30.35S                  
GAINESVILLE    FAIR      33  25  71 CALM      30.36S                  
BOWIE          FAIR      30  27  88 CALM      30.34S                  
BRIDGEPORT     FAIR      31  26  84 MISG      30.36S                  
DECATUR        FAIR      40  19  43 E3        30.33F                  
DENTON         FAIR      33  23  66 CALM      30.35S                  
MCKINNEY       FAIR      33  24  69 N3        30.35F                  
BONHAM         FAIR      27  22  81 CALM      30.35F                  
ROCKWALL       FAIR      39  24  53 CALM      30.35F                  
TERRELL        FAIR      31  25  78 CALM      30.36F                  
WAXAHACHIE     FAIR      32  28  85 CALM      30.37S                  
CLEBURNE       FAIR      36  27  69 S5        30.36S WCI  32          
$$

TXZ083>090-098>101-113>116-127>130-139>142-154-155-150400-
WESTERN NORTH TEXAS
  
CITY           SKY/WX    TMP DP  RH WIND       PRES   REMARKS
WICHITA FALLS  FAIR      35  25  66 SE8       30.32F WCI  29          
WF-KICKAPOO    FAIR      37  26  64 SE5       30.35F WCI  33          
VERNON           N/A    N/A N/A N/A MISG        N/A                   
ABILENE        FAIR      37  27  67 S8        30.32F WCI  31          
ABILENE-DYESS  FAIR      32  26  79 SW3       30.32S                  
GRAHAM         FAIR      32  26  78 CALM      30.32F                  
CISCO          FAIR      39  25  56 S6        30.32F WCI  35          
MINERAL WELLS  FAIR      36  19  50 CALM      30.33S                  
STEPHENVILLE   FAIR      36  24  63 CALM      30.36S                  
COMANCHE       FAIR      41  21  46 S3        30.35R                  
BROWNWOOD      MOCLDY    36  27  69 CALM      30.35R                  
COLEMAN        FAIR      39  24  54 CALM      30.34S                  
BRADY          FAIR      41  21  45 CALM      30.34R                  
$$

TXZ143>147-156>162-174-175-150400-
CENTRAL TEXAS
  
CITY           SKY/WX    TMP DP  RH WIND       PRES   REMARKS
WACO           FAIR      36  25  64 SE5       30.37S WCI  32          
WACO-TSTC      CLEAR     34  30  86 CALM      30.37F                  
WACO-MCGREGOR  FAIR      35  28  75 S5        30.37S WCI  31          
HILLSBORO      FAIR      34  31  88 CALM      30.35S                  
CORSICANA      FAIR      33  27  78 S3        30.38S                  
MEXIA          FAIR      33  26  75 SE3       30.36F                  
HEARNE         FAIR      32  28  86 CALM      30.40F                  
TEMPLE         FAIR      38  23  55 S5        30.38R WCI  34          
KILLEEN        FAIR      38  24  55 E5        30.35R WCI  35          
KILLEEN-SKYLRK FAIR      38  26  62 SE3       30.37R                  
FORT HOOD      FAIR      38  25  60 E3        30.32R                  
HAMILTON       FAIR      39  25  57 CALM      30.35S                  
LAMPASAS       FAIR      37  25  62 CALM      30.34S                  
$$

TXZ095>097-106>112-122>126-135>138-148>153-164>167-150400-
EAST TEXAS
  
CITY           SKY/WX    TMP DP  RH WIND       PRES   REMARKS
PARIS          FAIR      34  18  52 NW5       30.35S WCI  30          
SULPHUR SPRNGS FAIR      33  22  63 CALM      30.38R                  
GILMER         FAIR      31  28  85 MISG      30.36S                  
MINEOLA        FAIR      30  25  80 CALM      30.36S                  
TYLER          FAIR      33  25  72 CALM      30.36S                  
LONGVIEW       FAIR      32  27  81 CALM      30.35S                  
ATHENS         FAIR      32  28  86 CALM      30.36S                  
PALESTINE      FAIR      30  29  96 CALM      30.39S                  
JACKSONVILLE   FAIR      37  24  59 W3        30.37S                  
HENDERSON      FAIR      30  25  82 MISG      30.37S                  
NACOGDOCHES      N/A     28  25  88 CALM      30.38S                  
LUFKIN         FAIR      36  26  67 W3        30.38R                  
$$

SUPPLEMENTAL OBSERVATIONS (NWS FORT WORTH AREA)
  
CITY           SKY/WX    TMP DP  RH WIND       PRES   REMARKS
$$

SUPPLEMENTAL OBSERVATIONS (NWS NORMAN AREA)
  
CITY           SKY/WX    TMP DP  RH WIND       PRES   REMARKS
GOODLETT         N/A     37  27  67 S5        30.30R WCI  34          
ODELL            N/A     37  28  71 SE7       30.32S WCI  32          
CROWELL          N/A     38  29  69 S5        30.32S WCI  34          
KNOX CITY        N/A     38  32  78 SE7       30.32S WCI  33          
SEYMOUR          N/A     37  29  71 SE2       30.33S                  
$$

SUPPLEMENTAL OBSERVATIONS (NWS SAN ANGELO AREA)
  
CITY           SKY/WX    TMP DP  RH WIND       PRES   REMARKS
WEINERT          N/A     40  27  61 S7        30.32F WCI  35          
HASKELL          N/A     43  22  42 SE6       30.32F WCI  39          
THROCKMORTON     N/A     38  21  50 S3        30.34S                  
STAMFORD         N/A     39  31  72 S3        30.34S                  
CLYDE            N/A     39  20  46 E5        30.33S WCI  36          
$$

SUPPLEMENTAL OBSERVATIONS (NWS SHREVEPORT AREA)
  
CITY           SKY/WX    TMP DP  RH WIND       PRES   REMARKS
$$

SUPPLEMENTAL OBSERVATIONS ARE A COLLECTION OF AUTOMATED INSTRUMENTS
THAT ARE MAINTAINED BY A VARIETY OF FEDERAL AND STATE AGENCIES. 
CERTAIN ELEMENTS...SUCH AS HUMIDITY VALUES AND SUSTAINED WIND 
SPEEDS...MAY BE APPROXIMATED.